"startDT [UTC]","vpos","CH4 [ppm]","stdev(CH4) [ppm]","CO2 [ppm]","stdev(CO2) [ppm]","H2O [ppm]","stdev(H2O)","p_LGR [torr]","T_LGR [C]","mt1_LGR [us]","mt2_LGR [us]","T_ECpre [C]","T_EC1 [C]","T_EC2 [C]","p_inlet [hPa]","p_in [hPa]","p_out [hPa]","T_inlet [C]","RH_inlet [%]","dwpt_inlet [C]","T_vent [C]","RH_vent [%]","dwpt_vent [C]","flow_vent [l min-1]","flow_inlet [l min-1]","dwpt_sample [C]","T_room [C]"
2012-10-27 00:00:00,0.0,1.9440,0.0009,397.24,0.26,268.3,27.2,138.07,31.19,24.65,36.42,0.04,-272.75,-272.75,-43,564,-943,24.7,6.1,-15.1,24.9,6.1,-14.9,5.73,2.40,-22.7,29.8
2012-10-27 00:01:00,0.0,1.9436,0.0014,397.23,0.23,280.8,32.0,138.07,31.19,24.65,36.42,0.04,-272.74,-272.75,-43,564,-943,24.7,6.1,-15.1,24.9,6.1,-14.8,5.73,2.40,-22.7,29.8
2012-10-27 00:02:00,0.0,1.9430,0.0012,397.19,0.22,275.4,29.2,138.07,31.18,24.66,36.42,0.04,-272.75,-272.75,-43,564,-943,24.7,6.1,-15.0,24.9,6.2,-14.8,5.73,2.41,-22.7,29.8
2012-10-27 00:03:00,0.0,1.9431,0.0011,397.15,0.22,265.4,28.7,138.07,31.18,24.65,36.43,0.04,-272.75,-272.74,-43,564,-943,24.7,6.1,-15.0,24.9,6.2,-14.8,5.73,2.41,-22.7,29.8
2012-10-27 00:04:00,0.0,1.9418,0.0008,397.17,0.19,272.1,30.1,138.07,31.17,24.65,36.42,0.04,-272.75,-272.75,-43,564,-943,24.7,6.1,-15.0,24.9,6.2,-14.8,5.73,2.41,-22.7,29.8
2012-10-27 00:05:00,0.0,1.9417,0.0009,397.14,0.23,268.5,33.1,138.06,31.18,24.65,36.42,0.04,-272.75,-272.75,-43,564,-943,24.7,6.1,-15.0,24.9,6.2,-14.8,5.73,2.41,-22.8,29.8
2012-10-27 00:06:00,0.0,1.9430,0.0009,397.16,0.20,271.6,35.0,138.06,31.18,24.65,36.42,0.04,-272.74,-272.74,-43,564,-943,24.7,6.1,-15.0,24.9,6.2,-14.8,5.73,2.40,-22.8,29.8
2012-10-27 00:07:00,0.0,1.9429,0.0010,397.18,0.25,274.7,30.5,138.06,31.19,24.65,36.43,0.04,-272.75,-272.75,-43,564,-943,24.7,6.2,-14.9,24.9,6.2,-14.7,5.73,2.40,-22.8,29.8
2012-10-27 00:08:00,0.0,1.9436,0.0011,397.24,0.21,264.7,31.2,138.06,31.19,24.65,36.42,0.04,-272.75,-272.75,-43,564,-943,24.7,6.1,-15.0,24.9,6.2,-14.7,5.73,2.39,-22.7,29.8
2012-10-27 00:09:00,0.0,1.9444,0.0013,397.35,0.20,268.8,29.7,138.05,31.20,24.65,36.43,0.04,-272.75,-272.74,-43,564,-943,24.7,6.2,-14.9,24.9,6.2,-14.7,5.73,2.37,-22.7,29.8
2012-10-27 00:10:00,0.0,1.9460,0.0013,397.42,0.22,274.9,34.0,138.05,31.20,24.65,36.42,0.04,-272.74,-272.74,-43,564,-943,24.8,6.2,-14.9,24.9,6.2,-14.7,5.73,2.38,-22.7,29.8
2012-10-27 00:11:00,0.0,1.9469,0.0012,397.49,0.24,268.9,34.3,138.05,31.21,24.65,36.42,0.04,-272.75,-272.75,-43,564,-943,24.7,6.2,-14.9,24.9,6.2,-14.7,5.73,2.38,-22.7,29.8
2012-10-27 00:12:00,0.0,1.9478,0.0009,397.49,0.21,269.4,32.2,138.05,31.21,24.65,36.42,0.04,-272.75,-272.75,-43,564,-943,24.7,6.2,-14.9,24.9,6.2,-14.7,5.73,2.40,-22.7,29.8
2012-10-27 00:13:00,0.0,1.9481,0.0009,397.36,0.21,263.0,34.7,138.06,31.21,24.65,36.43,0.04,-272.74,-272.75,-43,564,-944,24.7,6.2,-14.9,24.9,6.2,-14.7,5.73,2.40,-22.7,29.8
2012-10-27 00:14:00,0.0,1.9484,0.0010,397.41,0.21,266.4,30.0,138.06,31.21,24.65,36.43,0.04,-272.75,-272.75,-43,564,-943,24.7,6.2,-14.9,24.9,6.2,-14.7,5.73,2.40,-22.7,29.8
2012-10-27 00:15:00,0.0,1.9487,0.0010,397.60,0.19,270.9,32.5,138.06,31.21,24.65,36.42,0.04,-272.75,-272.74,-43,564,-944,24.7,6.2,-14.9,24.9,6.2,-14.7,5.73,2.40,-22.7,29.7
2012-10-27 00:16:00,0.0,1.9469,0.0013,397.39,0.20,267.5,28.7,138.06,31.20,24.65,36.42,0.04,-272.74,-272.75,-43,564,-943,24.7,6.2,-15.0,24.9,6.2,-14.7,5.73,2.40,-22.7,29.8
2012-10-27 00:17:00,0.0,1.9449,0.0012,397.28,0.27,270.6,28.7,138.07,31.20,24.65,36.43,0.04,-272.75,-272.75,-43,564,-943,24.7,6.2,-14.9,24.9,6.3,-14.6,5.73,2.40,-22.7,29.8
2012-10-27 00:18:00,0.0,1.9477,0.0010,397.55,0.20,269.2,27.2,138.07,31.19,24.65,36.42,0.04,-272.75,-272.75,-43,564,-943,24.7,6.2,-14.9,24.9,6.3,-14.6,5.73,2.40,-22.7,29.8
2012-10-27 00:19:00,0.0,1.9489,0.0009,397.71,0.21,276.8,31.0,138.07,31.19,24.65,36.43,0.04,-272.75,-272.74,-43,564,-944,24.7,6.2,-14.9,24.9,6.3,-14.6,5.73,2.41,-22.7,29.8
2012-10-27 00:20:00,0.0,1.9485,0.0010,397.67,0.22,283.1,33.9,138.07,31.18,24.65,36.42,0.04,-272.75,-272.74,-43,564,-944,24.7,6.2,-15.0,24.9,6.3,-14.6,5.73,2.40,-22.7,29.8
2012-10-27 00:21:00,0.0,1.9482,0.0013,397.66,0.23,278.1,28.7,138.07,31.17,24.66,36.42,0.04,-272.75,-272.75,-43,564,-943,24.7,6.2,-14.9,24.9,6.2,-14.7,5.73,2.41,-22.7,29.8
2012-10-27 00:22:00,0.0,1.9480,0.0010,397.57,0.24,261.6,26.4,138.07,31.17,24.65,36.43,0.04,-272.75,-272.75,-43,564,-943,24.7,6.2,-14.9,24.9,6.2,-14.7,5.73,2.40,-22.7,29.8
2012-10-27 00:23:00,0.0,1.9483,0.0010,397.56,0.25,274.4,34.9,138.07,31.16,24.65,36.43,0.04,-272.75,-272.75,-43,564,-944,24.7,6.2,-14.9,24.9,6.3,-14.6,5.73,2.41,-22.7,29.8
2012-10-27 00:24:00,0.0,1.9472,0.0013,397.52,0.19,276.1,29.3,138.07,31.15,24.65,36.43,0.04,-272.74,-272.75,-43,564,-943,24.8,6.2,-14.9,24.9,6.2,-14.7,5.73,2.40,-22.7,29.8
2012-10-27 00:25:00,0.0,1.9496,0.0013,397.73,0.21,275.0,30.2,138.07,31.15,24.65,36.42,0.04,-272.75,-272.75,-43,564,-943,24.8,6.2,-14.9,24.9,6.2,-14.7,5.73,2.41,-22.7,29.8
2012-10-27 00:26:00,0.0,1.9496,0.0014,397.83,0.23,277.9,30.7,138.07,31.15,24.66,36.42,0.04,-272.74,-272.75,-43,564,-943,24.8,6.2,-14.9,24.9,6.2,-14.7,5.73,2.41,-22.7,29.8
2012-10-27 00:27:00,0.0,1.9484,0.0010,397.71,0.20,285.1,31.8,138.07,31.14,24.65,36.42,0.04,-272.75,-272.75,-43,564,-944,24.8,6.2,-14.9,25.0,6.2,-14.7,5.73,2.40,-22.7,29.8
2012-10-27 00:28:00,0.0,1.9493,0.0010,397.87,0.18,275.2,32.0,138.07,31.14,24.65,36.42,0.04,-272.75,-272.75,-43,564,-943,24.8,6.2,-14.9,24.9,6.2,-14.7,5.73,2.41,-22.7,29.8
2012-10-27 00:29:00,0.0,1.9475,0.0010,397.72,0.20,278.2,31.1,138.07,31.13,24.65,36.42,0.04,-272.75,-272.75,-43,564,-943,24.8,6.1,-14.9,24.9,6.2,-14.7,5.73,2.41,-22.7,29.8
2012-10-27 00:30:00,0.0,1.9482,0.0007,397.73,0.19,270.9,28.9,138.07,31.13,24.65,36.42,0.04,-272.74,-272.74,-43,564,-944,24.8,6.1,-15.0,24.9,6.2,-14.6,5.73,2.40,-22.7,29.8
2012-10-27 00:31:00,0.0,1.9481,0.0015,397.66,0.19,281.0,30.9,138.07,31.12,24.65,36.43,0.04,-272.75,-272.75,-43,564,-944,24.8,6.1,-14.9,24.9,6.2,-14.7,5.73,2.41,-22.7,29.8
2012-10-27 00:32:00,0.0,1.9474,0.0009,397.70,0.26,284.6,29.6,138.07,31.12,24.65,36.42,0.04,-272.75,-272.75,-43,564,-943,24.8,6.2,-14.9,24.9,6.2,-14.7,5.73,2.41,-22.7,29.8
2012-10-27 00:33:00,0.0,1.9469,0.0012,397.61,0.26,285.2,31.7,138.07,31.11,24.65,36.43,0.04,-272.74,-272.75,-43,564,-943,24.8,6.2,-14.9,24.9,6.2,-14.6,5.73,2.41,-22.7,29.8
2012-10-27 00:34:00,0.0,1.9446,0.0011,397.45,0.17,281.4,31.5,138.08,31.11,24.65,36.42,0.04,-272.74,-272.75,-43,564,-943,24.8,6.2,-14.9,24.9,6.2,-14.7,5.73,2.41,-22.7,29.8
2012-10-27 00:35:00,0.0,1.9442,0.0010,397.41,0.20,273.9,29.8,138.07,31.10,24.66,36.42,0.04,-272.74,-272.75,-43,564,-944,24.7,6.2,-14.9,24.9,6.2,-14.7,5.73,2.41,-22.7,29.8
2012-10-27 00:36:00,0.0,1.9444,0.0009,397.42,0.22,281.9,30.8,138.07,31.10,24.66,36.43,0.04,-272.75,-272.75,-43,564,-943,24.7,6.2,-14.9,24.9,6.3,-14.6,5.73,2.41,-22.7,29.8
2012-10-27 00:37:00,0.0,1.9451,0.0010,397.41,0.21,276.8,31.5,138.07,31.10,24.65,36.42,0.04,-272.74,-272.74,-43,564,-944,24.7,6.2,-14.9,24.9,6.3,-14.6,5.73,2.41,-22.7,29.7
2012-10-27 00:38:00,0.0,1.9457,0.0009,397.42,0.22,284.8,29.0,138.07,31.10,24.65,36.43,0.04,-272.75,-272.75,-43,564,-943,24.7,6.2,-14.9,24.9,6.3,-14.6,5.73,2.41,-22.7,29.7
2012-10-27 00:39:00,0.0,1.9455,0.0009,397.41,0.20,280.7,30.6,138.07,31.10,24.65,36.42,0.04,-272.74,-272.75,-43,564,-944,24.7,6.2,-14.9,24.9,6.3,-14.6,5.73,2.41,-22.7,29.7
2012-10-27 00:40:00,0.0,1.9449,0.0010,397.38,0.21,277.5,33.0,138.07,31.10,24.65,36.43,0.04,-272.74,-272.74,-43,564,-943,24.7,6.2,-14.9,24.9,6.3,-14.6,5.73,2.41,-22.7,29.7
2012-10-27 00:41:00,0.0,1.9453,0.0010,397.53,0.20,284.6,30.3,138.07,31.09,24.65,36.42,0.04,-272.74,-272.75,-43,564,-944,24.8,6.2,-14.9,24.9,6.3,-14.6,5.73,2.41,-22.7,29.7
2012-10-27 00:42:00,0.0,1.9453,0.0010,397.55,0.22,279.7,27.5,138.07,31.09,24.65,36.42,0.04,-272.75,-272.75,-43,564,-944,24.8,6.2,-14.9,24.9,6.3,-14.6,5.73,2.41,-22.7,29.7
2012-10-27 00:43:00,0.0,1.9444,0.0010,397.51,0.22,282.8,26.3,138.07,31.08,24.65,36.42,0.04,-272.75,-272.74,-43,564,-944,24.8,6.2,-14.9,24.9,6.3,-14.6,5.73,2.41,-22.7,29.7
2012-10-27 00:44:00,0.0,1.9454,0.0011,397.49,0.20,279.9,31.4,138.07,31.08,24.65,36.42,0.04,-272.75,-272.75,-43,564,-944,24.8,6.2,-14.9,24.9,6.3,-14.6,5.73,2.41,-22.7,29.7
2012-10-27 00:45:00,0.0,1.9450,0.0010,397.41,0.19,287.0,31.7,138.07,31.07,24.65,36.43,0.04,-272.75,-272.75,-43,564,-944,24.8,6.2,-14.9,24.9,6.3,-14.6,5.73,2.41,-22.7,29.7
2012-10-27 00:46:00,0.0,1.9444,0.0008,397.34,0.21,281.7,30.4,138.07,31.07,24.65,36.43,0.04,-272.74,-272.75,-44,564,-944,24.7,6.2,-14.9,24.9,6.3,-14.6,5.73,2.40,-22.7,29.7
2012-10-27 00:47:00,0.0,1.9440,0.0011,397.42,0.21,285.6,29.8,138.07,31.07,24.66,36.42,0.04,-272.74,-272.75,-44,564,-943,24.7,6.2,-14.9,24.9,6.3,-14.6,5.73,2.40,-22.7,29.8
2012-10-27 00:48:00,0.0,1.9436,0.0011,397.35,0.21,281.6,28.9,138.07,31.07,24.65,36.42,0.04,-272.75,-272.75,-43,564,-944,24.7,6.2,-14.8,24.9,6.3,-14.6,5.73,2.41,-22.7,29.7
2012-10-27 00:49:00,0.0,1.9438,0.0010,397.38,0.25,288.1,31.5,138.07,31.06,24.65,36.42,0.04,-272.75,-272.75,-43,564,-944,24.7,6.2,-14.8,24.9,6.3,-14.6,5.73,2.41,-22.7,29.7
2012-10-27 00:50:00,0.0,1.9437,0.0011,397.30,0.16,287.4,32.0,138.07,31.06,24.65,36.43,0.04,-272.74,-272.75,-43,564,-944,24.7,6.2,-14.8,24.9,6.3,-14.5,5.73,2.41,-22.7,29.7
2012-10-27 00:51:00,0.0,1.9442,0.0009,397.33,0.21,283.6,24.0,138.07,31.06,24.65,36.42,0.04,-272.74,-272.74,-43,564,-944,24.7,6.2,-14.8,24.9,6.3,-14.5,5.73,2.41,-22.7,29.8
2012-10-27 00:52:00,0.0,1.9437,0.0009,397.24,0.19,288.4,33.1,138.08,31.05,24.65,36.42,0.04,-272.75,-272.75,-43,564,-944,24.7,6.2,-14.8,24.9,6.3,-14.5,5.73,2.41,-22.7,29.7
2012-10-27 00:53:00,0.0,1.9433,0.0010,397.23,0.19,295.0,32.3,138.08,31.05,24.66,36.43,0.04,-272.75,-272.75,-43,564,-944,24.7,6.3,-14.8,24.9,6.3,-14.5,5.73,2.41,-22.7,29.7
2012-10-27 00:54:00,0.0,1.9431,0.0011,397.37,0.18,292.0,29.2,138.07,31.05,24.65,36.42,0.04,-272.75,-272.74,-43,564,-943,24.7,6.2,-14.8,25.0,6.3,-14.5,5.73,2.41,-22.7,29.7
2012-10-27 00:55:00,0.0,1.9438,0.0009,397.40,0.17,285.1,28.7,138.07,31.04,24.65,36.42,0.04,-272.75,-272.75,-43,564,-944,24.8,6.3,-14.8,25.0,6.3,-14.5,5.73,2.41,-22.7,29.7
2012-10-27 00:56:00,0.0,1.9441,0.0009,397.40,0.20,281.1,25.9,138.08,31.04,24.65,36.42,0.04,-272.75,-272.74,-43,564,-944,24.8,6.3,-14.7,24.9,6.3,-14.4,5.73,2.41,-22.7,29.7
2012-10-27 00:57:00,0.0,1.9438,0.0010,397.50,0.27,290.0,27.0,138.08,31.04,24.65,36.42,0.04,-272.74,-272.74,-43,564,-944,24.8,6.3,-14.7,24.9,6.3,-14.4,5.73,2.41,-22.7,29.7
2012-10-27 00:58:00,0.0,1.9445,0.0009,397.43,0.18,287.7,29.1,138.07,31.04,24.65,36.42,0.04,-272.75,-272.75,-43,564,-943,24.8,6.3,-14.7,24.9,6.4,-14.4,5.73,2.40,-22.7,29.7
2012-10-27 00:59:00,0.0,1.9441,0.0009,397.47,0.24,286.8,32.4,138.08,31.03,24.65,36.42,0.28,-270.70,-272.24,-43,564,-944,24.8,6.3,-14.7,24.9,6.4,-14.4,5.42,2.51,-27.3,29.7
2012-10-27 01:00:00,0.0,1.9442,0.0010,397.42,0.20,293.4,27.7,138.08,31.03,24.65,36.42,0.04,-272.74,-272.75,-43,564,-944,24.8,6.3,-14.6,24.9,6.4,-14.4,5.73,2.41,-22.7,29.7
2012-10-27 01:01:00,0.0,1.9444,0.0010,397.43,0.25,288.1,30.3,138.07,31.03,24.65,36.42,0.04,-272.74,-272.75,-43,564,-944,24.8,6.3,-14.7,24.9,6.4,-14.4,5.73,2.41,-22.7,29.7
2012-10-27 01:02:00,0.0,1.9449,0.0010,397.46,0.22,292.7,29.5,138.08,31.03,24.65,36.43,0.04,-272.75,-272.75,-43,564,-943,24.8,6.3,-14.6,24.9,6.4,-14.4,5.73,2.41,-22.7,29.7
2012-10-27 01:03:00,0.0,1.9453,0.0008,397.46,0.23,286.8,28.2,138.08,31.02,24.65,36.43,0.04,-272.75,-272.75,-44,564,-944,24.8,6.3,-14.6,24.9,6.4,-14.4,5.73,2.40,-22.7,29.7
2012-10-27 01:04:00,0.0,1.9453,0.0008,397.49,0.19,286.1,28.4,138.08,31.02,24.65,36.43,0.04,-272.74,-272.75,-44,564,-944,24.8,6.3,-14.6,24.9,6.4,-14.3,5.73,2.41,-22.7,29.7
2012-10-27 01:05:00,0.0,1.9438,0.0011,397.52,0.18,293.0,33.7,138.08,31.02,24.65,36.42,0.04,-272.75,-272.76,-43,564,-944,24.8,6.3,-14.6,24.9,6.4,-14.3,5.73,2.41,-22.7,29.7
2012-10-27 01:06:00,0.0,1.9449,0.0008,397.50,0.23,286.6,34.1,138.07,31.02,24.65,36.42,0.04,-272.75,-272.75,-43,564,-943,24.8,6.3,-14.6,25.0,6.4,-14.3,5.73,2.42,-22.7,29.7
2012-10-27 01:07:00,0.0,1.9446,0.0010,397.52,0.24,289.4,25.0,138.07,31.02,24.66,36.42,0.04,-272.75,-272.75,-43,564,-944,24.7,6.3,-14.6,24.9,6.4,-14.4,5.73,2.42,-22.7,29.7
2012-10-27 01:08:00,0.0,1.9463,0.0009,397.65,0.18,285.1,26.9,138.07,31.03,24.65,36.42,0.04,-272.75,-272.75,-43,564,-944,24.7,6.3,-14.6,24.9,6.4,-14.3,5.73,2.41,-22.7,29.7
2012-10-27 01:09:00,0.0,1.9456,0.0009,397.54,0.18,282.2,35.5,138.06,31.03,24.66,36.43,0.04,-272.74,-272.75,-43,564,-944,24.7,6.3,-14.6,24.9,6.4,-14.4,5.73,2.40,-22.7,29.7
2012-10-27 01:10:00,0.0,1.9450,0.0010,397.58,0.19,270.4,28.2,138.06,31.04,24.65,36.43,0.04,-272.74,-272.74,-43,564,-944,24.7,6.4,-14.6,25.0,6.4,-14.3,5.73,2.40,-22.7,29.7
2012-10-27 01:11:00,0.0,1.9464,0.0010,397.62,0.23,284.9,31.7,138.06,31.04,24.65,36.43,0.04,-272.74,-272.75,-43,564,-944,24.8,6.4,-14.6,24.9,6.4,-14.3,5.73,2.40,-22.7,29.8
2012-10-27 01:12:00,0.0,1.9464,0.0008,397.73,0.20,288.1,27.9,138.06,31.04,24.65,36.42,0.04,-272.74,-272.75,-43,564,-944,24.7,6.3,-14.6,25.0,6.4,-14.3,5.73,2.40,-22.7,29.8
2012-10-27 01:13:00,0.0,1.9470,0.0010,397.75,0.17,286.3,32.3,138.07,31.04,24.65,36.42,0.04,-272.74,-272.74,-43,564,-944,24.7,6.4,-14.6,24.9,6.4,-14.3,5.73,2.40,-22.7,29.8
2012-10-27 01:14:00,0.0,1.9469,0.0010,397.83,0.23,287.7,33.2,138.07,31.04,24.65,36.41,0.04,-272.74,-272.74,-43,564,-944,24.7,6.4,-14.6,24.9,6.4,-14.3,5.73,2.40,-22.7,29.8
2012-10-27 01:15:00,0.0,1.9459,0.0010,397.72,0.22,288.0,28.9,138.07,31.04,24.65,36.42,0.04,-272.75,-272.75,-43,564,-944,24.7,6.4,-14.6,25.0,6.4,-14.3,5.73,2.40,-22.7,29.8
2012-10-27 01:16:00,0.0,1.9457,0.0009,397.67,0.18,286.6,30.6,138.07,31.04,24.65,36.42,0.04,-272.75,-272.75,-43,564,-944,24.8,6.4,-14.5,24.9,6.4,-14.3,5.73,2.40,-22.6,29.8
2012-10-27 01:17:00,0.0,1.9442,0.0011,397.56,0.19,293.5,32.9,138.07,31.04,24.65,36.43,0.04,-272.74,-272.75,-43,564,-944,24.8,6.3,-14.6,25.0,6.4,-14.3,5.73,2.40,-22.6,29.8
2012-10-27 01:18:00,0.0,1.9443,0.0008,397.76,0.21,292.8,30.6,138.07,31.03,24.65,36.41,0.04,-272.75,-272.75,-43,564,-944,24.8,6.4,-14.5,25.0,6.4,-14.3,5.73,2.41,-22.6,29.8
2012-10-27 01:19:00,0.0,1.9443,0.0010,397.78,0.20,285.3,27.3,138.07,31.03,24.66,36.41,0.04,-272.75,-272.75,-43,564,-944,24.8,6.4,-14.5,24.9,6.4,-14.3,5.73,2.41,-22.6,29.8
2012-10-27 01:20:00,0.0,1.9449,0.0008,397.77,0.16,288.7,31.3,138.07,31.02,24.65,36.42,0.04,-272.75,-272.74,-43,564,-944,24.8,6.3,-14.6,24.9,6.4,-14.3,5.73,2.41,-22.6,29.8
2012-10-27 01:21:00,0.0,1.9449,0.0011,397.78,0.23,298.3,29.2,138.08,31.01,24.66,36.42,0.04,-272.75,-272.75,-43,564,-944,24.8,6.3,-14.6,24.9,6.4,-14.3,5.73,2.41,-22.6,29.8
2012-10-27 01:22:00,0.0,1.9451,0.0009,397.81,0.20,291.8,31.2,138.08,31.01,24.66,36.42,0.04,-272.75,-272.75,-43,564,-944,24.8,6.3,-14.6,24.9,6.4,-14.3,5.73,2.41,-22.6,29.8
2012-10-27 01:23:00,0.0,1.9448,0.0012,397.82,0.22,292.4,31.6,138.08,31.00,24.65,36.42,0.04,-272.75,-272.75,-43,564,-944,24.8,6.3,-14.6,24.9,6.4,-14.3,5.73,2.41,-22.6,29.8
2012-10-27 01:24:00,0.0,1.9445,0.0009,397.77,0.17,293.6,28.6,138.08,31.00,24.66,36.42,0.04,-272.75,-272.75,-44,564,-944,24.8,6.3,-14.6,24.9,6.4,-14.3,5.73,2.41,-22.6,29.8
2012-10-27 01:25:00,0.0,1.9447,0.0009,397.71,0.25,293.2,26.8,138.08,30.99,24.65,36.42,0.04,-272.75,-272.74,-43,564,-944,24.7,6.3,-14.6,24.9,6.4,-14.3,5.73,2.41,-22.6,29.8
2012-10-27 01:26:00,0.0,1.9445,0.0008,397.70,0.20,295.9,28.1,138.08,30.99,24.65,36.42,0.04,-272.74,-272.75,-43,564,-944,24.8,6.3,-14.6,24.9,6.4,-14.3,5.73,2.41,-22.6,29.8
2012-10-27 01:27:00,0.0,1.9434,0.0009,397.63,0.21,300.0,35.9,138.08,30.98,24.65,36.42,0.04,-272.75,-272.74,-44,564,-944,24.8,6.3,-14.6,24.9,6.4,-14.3,5.73,2.41,-22.6,29.8
2012-10-27 01:28:00,0.0,1.9416,0.0009,397.36,0.18,292.4,30.3,138.08,30.98,24.65,36.43,0.04,-272.75,-272.75,-44,564,-944,24.8,6.3,-14.6,24.9,6.4,-14.4,5.73,2.41,-22.6,29.8
2012-10-27 01:29:00,0.0,1.9412,0.0012,397.45,0.24,294.4,32.9,138.08,30.98,24.65,36.42,0.04,-272.75,-272.75,-44,564,-944,24.8,6.3,-14.6,24.9,6.4,-14.3,5.73,2.41,-22.6,29.8
2012-10-27 01:30:00,0.0,1.9419,0.0010,397.47,0.20,295.9,27.0,138.08,30.97,24.65,36.42,0.04,-272.74,-272.75,-43,564,-944,24.8,6.3,-14.6,24.9,6.4,-14.3,5.73,2.41,-22.6,29.8
2012-10-27 01:31:00,0.0,1.9415,0.0010,397.53,0.20,296.3,31.9,138.08,30.97,24.66,36.41,0.04,-272.74,-272.75,-44,564,-944,24.8,6.3,-14.6,24.9,6.4,-14.3,5.73,2.41,-22.6,29.8
2012-10-27 01:32:00,0.0,1.9417,0.0008,397.44,0.19,289.7,33.3,138.08,30.96,24.66,36.42,0.04,-272.74,-272.75,-44,564,-944,24.8,6.3,-14.6,24.9,6.4,-14.3,5.73,2.41,-22.6,29.8
2012-10-27 01:33:00,0.0,1.9411,0.0011,397.24,0.17,298.1,28.6,138.07,30.96,24.65,36.42,0.04,-272.75,-272.75,-43,564,-944,24.8,6.3,-14.6,24.9,6.4,-14.3,5.73,2.40,-22.6,29.8
2012-10-27 01:34:00,0.0,1.9407,0.0011,397.12,0.21,290.4,30.1,138.07,30.97,24.65,36.43,0.04,-272.75,-272.74,-43,564,-944,24.8,6.3,-14.6,24.9,6.4,-14.3,5.73,2.40,-22.6,29.8
2012-10-27 01:35:00,0.0,1.9403,0.0011,397.11,0.22,295.8,33.2,138.07,30.97,24.65,36.43,0.04,-272.75,-272.74,-43,564,-944,24.8,6.4,-14.5,24.9,6.4,-14.3,5.73,2.38,-22.6,29.8
2012-10-27 01:36:00,0.0,1.9415,0.0011,397.13,0.23,304.9,33.3,138.06,30.98,24.65,36.43,0.04,-272.75,-272.75,-43,564,-944,24.8,6.4,-14.5,24.9,6.5,-14.2,5.73,2.38,-22.6,29.8
2012-10-27 01:37:00,0.0,1.9410,0.0012,397.15,0.23,289.8,31.2,138.06,30.99,24.65,36.42,0.04,-272.74,-272.75,-43,564,-944,24.8,6.4,-14.5,24.9,6.5,-14.2,5.73,2.40,-22.5,29.8
2012-10-27 01:38:00,0.0,1.9418,0.0010,397.11,0.20,288.6,28.7,138.06,31.00,24.65,36.43,0.04,-272.75,-272.75,-43,564,-943,24.8,6.4,-14.4,25.0,6.5,-14.2,5.73,2.41,-22.5,29.8
2012-10-27 01:39:00,0.0,1.9418,0.0008,397.23,0.21,284.7,30.9,138.06,31.01,24.66,36.43,0.04,-272.75,-272.75,-43,564,-944,24.8,6.4,-14.4,25.0,6.5,-14.2,5.73,2.42,-22.5,29.9
2012-10-27 01:40:00,0.0,1.9418,0.0009,397.23,0.22,287.4,32.9,138.06,31.02,24.65,36.43,0.04,-272.75,-272.75,-43,564,-944,24.8,6.4,-14.4,25.0,6.5,-14.1,5.73,2.42,-22.5,29.9
2012-10-27 01:41:00,0.0,1.9416,0.0009,397.40,0.22,284.8,27.0,138.06,31.02,24.65,36.42,0.04,-272.74,-272.74,-43,564,-944,24.8,6.4,-14.3,25.0,6.5,-14.1,5.73,2.41,-22.5,29.8
2012-10-27 01:42:00,0.0,1.9408,0.0011,397.18,0.25,288.4,29.5,138.06,31.03,24.65,36.43,0.04,-272.75,-272.75,-43,564,-944,24.8,6.5,-14.3,25.0,6.6,-14.0,5.73,2.40,-22.5,29.8
2012-10-27 01:43:00,0.0,1.9408,0.0010,397.13,0.21,289.9,22.1,138.06,31.03,24.65,36.43,0.04,-272.75,-272.75,-43,564,-944,24.8,6.5,-14.3,24.9,6.6,-14.0,5.73,2.40,-22.6,29.8
2012-10-27 01:44:00,0.0,1.9400,0.0015,397.10,0.22,287.0,32.2,138.07,31.03,24.66,36.43,0.04,-272.75,-272.75,-43,564,-944,24.8,6.5,-14.2,24.9,6.6,-14.0,5.73,2.41,-22.5,29.8
2012-10-27 01:45:00,0.0,1.9385,0.0013,396.98,0.20,295.3,25.6,138.07,31.03,24.65,36.42,0.04,-272.75,-272.75,-43,564,-944,24.8,6.5,-14.2,24.9,6.6,-14.0,5.73,2.40,-22.5,29.9
2012-10-27 01:46:00,0.0,1.9397,0.0010,397.01,0.21,291.1,32.7,138.07,31.02,24.65,36.43,0.04,-272.75,-272.75,-43,564,-944,24.8,6.5,-14.2,24.9,6.6,-13.9,5.73,2.40,-22.5,29.9
2012-10-27 01:47:00,0.0,1.9390,0.0010,397.07,0.25,296.8,29.5,138.07,31.02,24.65,36.42,0.04,-272.74,-272.74,-43,564,-944,24.8,6.5,-14.2,24.9,6.7,-13.9,5.73,2.40,-22.5,29.8
2012-10-27 01:48:00,0.0,1.9377,0.0010,397.06,0.19,297.3,29.5,138.07,31.01,24.66,36.43,0.04,-272.74,-272.75,-43,564,-944,24.8,6.6,-14.1,24.9,6.6,-13.9,5.73,2.40,-22.5,29.8
2012-10-27 01:49:00,0.0,1.9381,0.0008,396.97,0.18,292.1,28.1,138.07,31.01,24.66,36.43,0.04,-272.75,-272.75,-43,564,-944,24.8,6.6,-14.1,24.9,6.6,-13.9,5.73,2.40,-22.6,29.8
2012-10-27 01:50:00,0.0,1.9371,0.0012,396.96,0.18,299.2,31.5,138.07,31.00,24.65,36.42,0.04,-272.75,-272.75,-43,564,-944,24.8,6.5,-14.1,24.9,6.7,-13.9,5.73,2.40,-22.5,29.9
2012-10-27 01:51:00,0.0,1.9350,0.0010,396.83,0.22,296.4,27.6,138.08,31.00,24.65,36.43,0.04,-272.74,-272.75,-44,564,-944,24.8,6.5,-14.2,24.9,6.6,-13.9,5.73,2.40,-22.5,29.9
2012-10-27 01:52:00,0.0,1.9357,0.0011,396.84,0.20,292.1,31.5,138.07,30.99,24.65,36.43,0.04,-272.75,-272.75,-43,564,-944,24.8,6.5,-14.2,24.9,6.6,-13.9,5.73,2.41,-22.5,29.9
2012-10-27 01:53:00,0.0,1.9364,0.0010,396.98,0.22,296.6,24.3,138.07,30.99,24.66,36.43,0.04,-272.75,-272.75,-44,564,-944,24.8,6.5,-14.2,24.9,6.6,-14.0,5.73,2.40,-22.5,29.9
2012-10-27 01:54:00,0.0,1.9367,0.0009,397.03,0.23,299.1,35.1,138.08,30.98,24.65,36.42,0.04,-272.74,-272.74,-44,564,-944,24.8,6.5,-14.3,24.9,6.6,-14.0,5.73,2.41,-22.5,29.9
2012-10-27 01:55:00,0.0,1.9378,0.0010,397.15,0.22,295.6,30.4,138.07,30.98,24.65,36.42,0.04,-272.74,-272.75,-44,564,-944,24.8,6.5,-14.3,24.9,6.6,-14.0,5.73,2.40,-22.5,29.9
2012-10-27 01:56:00,0.0,1.9375,0.0008,397.07,0.21,304.6,29.7,138.08,30.97,24.65,36.43,0.04,-272.75,-272.75,-44,564,-944,24.8,6.4,-14.3,24.9,6.5,-14.1,5.73,2.41,-22.5,29.9
2012-10-27 01:57:00,0.0,1.9377,0.0010,397.13,0.19,297.6,34.2,138.07,30.97,24.65,36.42,0.04,-272.74,-272.75,-44,564,-944,24.8,6.4,-14.4,24.9,6.5,-14.1,5.73,2.41,-22.5,29.9
2012-10-27 01:58:00,0.0,1.9386,0.0011,397.17,0.18,300.3,25.9,138.08,30.97,24.65,36.42,0.04,-272.74,-272.75,-44,564,-944,24.8,6.4,-14.4,24.9,6.5,-14.1,5.73,2.40,-22.5,29.9
2012-10-27 01:59:00,0.0,1.9387,0.0009,397.28,0.20,300.0,26.8,138.08,30.96,24.65,36.43,0.04,-272.75,-272.75,-44,564,-944,24.8,6.4,-14.4,24.9,6.5,-14.1,5.73,2.40,-22.5,29.9
2012-10-27 02:00:00,1.0,1.9005,0.0264,384.27,9.05,293.4,25.2,138.08,30.96,24.65,36.42,0.04,-272.75,-272.74,-44,607,-944,24.8,6.4,-14.5,24.9,6.5,-14.2,5.73,2.35,-22.5,29.8
2012-10-27 02:01:00,1.0,1.8704,0.0010,373.85,0.23,285.1,27.1,138.08,30.95,24.66,36.43,0.04,-272.75,-272.75,-44,604,-944,24.8,6.4,-14.5,24.9,6.5,-14.2,5.73,2.40,-22.5,29.9
2012-10-27 02:02:00,1.0,1.8702,0.0009,373.63,0.16,285.1,26.3,138.08,30.95,24.65,36.44,0.04,-272.75,-272.75,-43,604,-944,24.8,6.4,-14.5,24.9,6.5,-14.2,5.73,2.40,-22.5,29.9
2012-10-27 02:03:00,1.0,1.8704,0.0009,373.69,0.20,283.5,36.4,138.08,30.94,24.65,36.44,0.04,-272.75,-272.75,-43,603,-944,24.8,6.4,-14.5,24.9,6.5,-14.2,5.73,2.40,-22.6,29.8
2012-10-27 02:04:00,1.0,1.8701,0.0009,373.69,0.23,282.8,31.3,138.08,30.94,24.66,36.43,0.04,-272.75,-272.75,-43,603,-944,24.9,6.4,-14.5,24.9,6.5,-14.2,5.73,2.40,-22.5,29.9
2012-10-27 02:05:00,0.0,1.9074,0.0268,386.56,9.08,292.8,29.3,138.08,30.94,24.65,36.43,0.04,-272.74,-272.74,-43,563,-944,24.9,6.4,-14.4,24.9,6.5,-14.2,5.73,2.37,-22.5,29.9
2012-10-27 02:06:00,0.0,1.9378,0.0010,397.01,0.21,302.2,28.2,138.08,30.93,24.65,36.42,0.04,-272.75,-272.75,-44,563,-944,24.9,6.4,-14.4,24.9,6.5,-14.2,5.73,2.41,-22.5,29.9
2012-10-27 02:07:00,0.0,1.9384,0.0011,396.98,0.26,305.9,26.9,138.08,30.93,24.65,36.43,0.04,-272.75,-272.74,-44,563,-944,24.9,6.4,-14.4,24.9,6.5,-14.1,5.73,2.41,-22.5,29.9
2012-10-27 02:08:00,0.0,1.9387,0.0010,397.02,0.18,304.4,31.0,138.08,30.92,24.65,36.43,0.04,-272.75,-272.75,-44,563,-944,24.9,6.4,-14.4,24.9,6.5,-14.1,5.73,2.41,-22.5,29.9
2012-10-27 02:09:00,0.0,1.9385,0.0011,397.17,0.19,309.4,32.5,138.08,30.92,24.65,36.41,0.04,-272.75,-272.75,-44,563,-944,24.8,6.4,-14.4,24.9,6.5,-14.1,5.73,2.41,-22.5,29.9
2012-10-27 02:10:00,0.0,1.9390,0.0009,397.11,0.23,307.4,25.6,138.08,30.92,24.65,36.42,0.04,-272.75,-272.75,-44,563,-944,24.8,6.4,-14.4,24.9,6.5,-14.1,5.73,2.41,-22.5,29.9
2012-10-27 02:11:00,0.0,1.9388,0.0009,397.08,0.18,309.0,33.9,138.08,30.92,24.65,36.42,0.04,-272.74,-272.75,-44,563,-944,24.9,6.4,-14.4,24.9,6.5,-14.1,5.73,2.41,-22.5,29.9
2012-10-27 02:12:00,0.0,1.9386,0.0011,397.15,0.19,308.8,30.1,138.08,30.91,24.65,36.42,0.04,-272.75,-272.75,-44,563,-944,24.9,6.4,-14.3,24.9,6.5,-14.1,5.73,2.41,-22.5,29.9
2012-10-27 02:13:00,0.0,1.9382,0.0010,397.12,0.22,305.0,29.2,138.08,30.91,24.65,36.42,0.04,-272.75,-272.75,-44,564,-944,24.9,6.4,-14.4,24.9,6.5,-14.1,5.73,2.41,-22.5,29.9
2012-10-27 02:14:00,0.0,1.9386,0.0009,397.07,0.19,305.7,28.7,138.08,30.90,24.65,36.43,0.04,-272.74,-272.75,-44,564,-944,24.8,6.4,-14.4,24.9,6.5,-14.1,5.73,2.41,-22.5,29.9
2012-10-27 02:15:00,0.0,1.9386,0.0008,397.15,0.21,304.7,31.4,138.08,30.90,24.65,36.42,0.04,-272.75,-272.74,-44,563,-944,24.9,6.4,-14.4,24.9,6.5,-14.1,5.73,2.41,-22.5,29.9
2012-10-27 02:16:00,0.0,1.9381,0.0009,397.17,0.18,300.9,31.6,138.08,30.90,24.66,36.41,0.04,-272.75,-272.75,-44,564,-944,24.9,6.4,-14.4,24.9,6.5,-14.1,5.73,2.42,-22.5,29.9